Williamtown, Australia

5:50 PM AEST on July 25, 2017 (GMT +1000)
Williamtown Military

Weather History for YWLM - November, 2013

Change the Weather History Date:

Monday, November 25, 2013

  Actual Average Record
Temperature  
Mean Temperature 67 °F -  
Max Temperature 74 °F - - ()
Min Temperature 60 °F - - ()
Cooling Degree Days 2    
Growing Degree Days 17 (Base 50)    
Moisture  
Dew Point 57 °F    
Average Humidity 76    
Maximum Humidity 94    
Minimum Humidity 47    
Precipitation  
Precipitation 0.20 in - - ()
Sea Level Pressure  
Sea Level Pressure 29.78 in    
Wind  
Wind Speed 9 mph ()    
Max Wind Speed 24 mph    
Max Gust Speed 34 mph    
Visibility 6.3 miles    
Events Rain , Thunderstorm    
T = Trace of Precipitation, MM = Missing Value Source: Averaged Metar Reports

Daily Weather History Graph

Daily Weather History Graph

Search for Another Location

Airport or City:

Trip Planner

Search our weather history database for the weather conditions in past years. The results will help you decide how hot, cold, wet, or windy it might be!

Date:

Astronomy

Nov. 25, 2013 Rise Set
Actual Time 5:38 AM AEDT 7:40 PM AEDT
Civil Twilight 5:11 AM AEDT 8:08 PM AEDT
Nautical Twilight 4:37 AM AEDT 8:42 PM AEDT
Astronomical Twilight 4:01 AM AEDT 9:18 PM AEDT
Moon 12:23 AM AEDT 11:52 AM AEDT
Length of Visible Light 14h 57m
Length of Day
14h 01m
Waning Gibbous, 57% of the Moon is Illuminated
Nov 25
Waning Gibbous
Nov 26
Last Quarter
Dec 3
New
Dec 10
First Quarter
Dec 17
Full

Hourly Weather History & Observations

Time (AEDT) Temp. Dew Point Humidity Pressure Visibility Wind Dir Wind Speed Gust Speed Precip Events Conditions
12:00 AM 65 °F 59 °F 75% 29.77 in - South 4.6 mph - -   Overcast
12:00 AM 64.4 °F 59.0 °F 83% 29.77 in 6.2 mi South 4.6 mph - N/A   Mostly Cloudy
12:30 AM 66.2 °F 59.0 °F 78% 29.74 in 6.2 mi South 5.8 mph - N/A   Mostly Cloudy
1:00 AM 64.4 °F 59.0 °F 83% 29.74 in 6.2 mi SSE 3.5 mph - N/A   Overcast
1:30 AM 64.4 °F 59.0 °F 83% 29.74 in 6.2 mi South 4.6 mph - N/A   Mostly Cloudy
2:00 AM 65 °F 59 °F 74% 29.75 in - SSE 4.6 mph - -  
2:00 AM 66.2 °F 59.0 °F 78% 29.74 in 6.2 mi SSE 4.6 mph - N/A   Overcast
2:30 AM 64.4 °F 59.0 °F 83% 29.71 in 6.2 mi SSW 5.8 mph - N/A   Overcast
3:00 AM 64 °F 60 °F 81% 29.73 in - SW 4.6 mph - -   Overcast
3:00 AM 64.4 °F 59.0 °F 83% 29.71 in 6.2 mi SW 4.6 mph - N/A   Overcast
3:30 AM 64.4 °F 60.8 °F 88% 29.71 in 6.2 mi WNW 4.6 mph - N/A   Overcast
4:00 AM 62.6 °F 59.0 °F 88% 29.71 in 6.2 mi WNW 4.6 mph - N/A   Mostly Cloudy
4:30 AM 60.8 °F 59.0 °F 94% 29.71 in 6.2 mi NW 5.8 mph - N/A   Scattered Clouds
5:00 AM 62 °F 59 °F 87% 29.73 in - West 4.6 mph - -  
5:00 AM 62.6 °F 59.0 °F 88% 29.71 in 6.2 mi West 4.6 mph - N/A   Overcast
5:30 AM 60.8 °F 59.0 °F 94% 29.71 in 6.2 mi West 4.6 mph - N/A   Scattered Clouds
6:00 AM 61 °F 59 °F 91% 29.74 in 9 mi NW 5.8 mph - -   Haze
6:00 AM 60.8 °F 59.0 °F 94% 29.74 in 6.2 mi NW 5.8 mph - N/A   Scattered Clouds
6:30 AM 62.6 °F 59.0 °F 88% 29.74 in 6.2 mi West 3.5 mph - N/A   Scattered Clouds
7:00 AM 64.4 °F 59.0 °F 83% 29.74 in 6.2 mi West 5.8 mph - N/A   Scattered Clouds
7:30 AM 66.2 °F 59.0 °F 78% 29.74 in 6.2 mi SW 4.6 mph - N/A   Partly Cloudy
8:00 AM 67 °F 58 °F 65% 29.76 in - SSW 5.8 mph - -  
8:00 AM 68.0 °F 57.2 °F 68% 29.74 in 6.2 mi SSW 5.8 mph - N/A   Partly Cloudy
8:30 AM 69.8 °F 59.0 °F 68% 29.74 in 6.2 mi SE 2.3 mph - N/A   Partly Cloudy
9:00 AM 71 °F 58 °F 53% 29.76 in 9 mi SSE 3.5 mph - -   Haze
9:00 AM 71.6 °F 57.2 °F 60% 29.74 in 6.2 mi SSE 3.5 mph - N/A   Partly Cloudy
9:30 AM 71.6 °F 57.2 °F 60% 29.74 in 6.2 mi South 8.1 mph - N/A   Scattered Clouds
10:00 AM 71.6 °F 57.2 °F 60% 29.74 in 6.2 mi South 8.1 mph - N/A   Scattered Clouds
10:30 AM 71.6 °F 57.2 °F 60% 29.74 in 6.2 mi South 8.1 mph - N/A   Scattered Clouds
11:00 AM 74 °F 58 °F 47% 29.75 in - SE 12.7 mph - -  
11:00 AM 73.4 °F 57.2 °F 57% 29.74 in 6.2 mi SE 12.7 mph - N/A   Scattered Clouds
11:30 AM 69.8 °F 57.2 °F 64% 29.74 in 6.2 mi SSE 12.7 mph - N/A   Mostly Cloudy
12:00 PM 69 °F 59 °F 62% 29.75 in 9 mi SSE 15.0 mph - - Rain Light Rain Showers
12:00 PM 68.0 °F 59.0 °F 73% 29.74 in 6.2 mi SSE 15.0 mph - N/A Rain Light Rain Showers
12:30 PM 69.8 °F 59.0 °F 68% 29.74 in 6.2 mi SSE 15.0 mph - N/A   Scattered Clouds
12:46 PM 69.8 °F 59.0 °F 68% 29.74 in 6.2 mi SSE 16.1 mph - N/A Thunderstorm Thunderstorm
1:00 PM 68.0 °F 60.8 °F 78% 29.74 in 6.2 mi SSE 17.3 mph - N/A Rain , Thunderstorm Light Thunderstorms and Rain
1:30 PM 69.8 °F 59.0 °F 68% 29.71 in 6.2 mi SSE 15.0 mph - N/A Rain , Thunderstorm Light Thunderstorms and Rain
2:00 PM 68 °F 60 °F 68% 29.76 in - South 11.5 mph - -  
2:00 PM 68.0 °F 59.0 °F 73% 29.74 in 6.2 mi South 11.5 mph - N/A Rain , Thunderstorm Light Thunderstorms and Rain
2:22 PM 64.4 °F 55.4 °F 73% 29.77 in 6.2 mi South 18.4 mph 32.2 mph N/A Rain Light Rain Showers
2:30 PM 62.6 °F 53.6 °F 72% 29.77 in 5.6 mi SSW 24.2 mph - N/A Rain Light Rain Showers
2:43 PM 60.8 °F 55.4 °F 82% 29.77 in 6.2 mi SSW 19.6 mph - N/A Rain , Thunderstorm Light Thunderstorms and Rain
3:00 PM 62 °F 55 °F 72% 29.77 in 9 mi South 13.8 mph - - Thunderstorm Thunderstorm
3:00 PM 62.6 °F 55.4 °F 77% 29.74 in 6.2 mi South 13.8 mph - N/A Rain Light Rain Showers
3:30 PM 62.6 °F 57.2 °F 82% 29.77 in 6.2 mi SSW 9.2 mph - N/A   Mostly Cloudy
4:00 PM 64.4 °F 59.0 °F 83% 29.77 in 6.2 mi SW 10.4 mph - N/A Rain Light Rain Showers
4:30 PM 64.4 °F 59.0 °F 83% 29.77 in 6.2 mi SSW 11.5 mph - N/A Rain Light Rain Showers
5:00 PM 64 °F 60 °F 81% 29.80 in - SSW 13.8 mph - -  
5:00 PM 64.4 °F 59.0 °F 83% 29.80 in 6.2 mi SSW 13.8 mph - N/A   Mostly Cloudy
5:30 PM 66.2 °F 59.0 °F 78% 29.80 in 6.2 mi SSW 11.5 mph - N/A Rain Light Rain Showers
5:43 PM 68.0 °F 59.0 °F 73% 29.80 in 6.2 mi SSW 20.7 mph 34.5 mph N/A   Scattered Clouds
6:00 PM 65 °F 57 °F 67% 29.82 in - SSW 24.2 mph - -  
6:00 PM 64.4 °F 57.2 °F 77% 29.80 in 6.2 mi SSW 24.2 mph - N/A   Scattered Clouds
6:30 PM 62.6 °F 59.0 °F 88% 29.83 in 6.2 mi SSW 24.2 mph - N/A   Mostly Cloudy
6:33 PM 62.6 °F 59.0 °F 88% 29.83 in 6.2 mi SSW 23.0 mph 34.5 mph N/A Rain Light Rain Showers
6:50 PM 62.6 °F 59.0 °F 88% 29.83 in 3.1 mi SSW 18.4 mph - N/A Rain Light Rain Showers
7:00 PM 60.8 °F 59.0 °F 94% 29.86 in 3.7 mi SSW 20.7 mph - N/A Rain Light Rain Showers
7:30 PM 62.6 °F 57.2 °F 82% 29.86 in 6.2 mi SSW 21.9 mph - N/A   Scattered Clouds
7:37 PM 60.8 °F 57.2 °F 88% 29.86 in 6.2 mi SSW 21.9 mph - N/A   Overcast
7:44 PM 60.8 °F 57.2 °F 88% 29.86 in 6.2 mi SSW 20.7 mph - N/A   Mostly Cloudy
7:55 PM 60.8 °F 55.4 °F 82% 29.89 in 6.2 mi SSW 19.6 mph 33.4 mph N/A   Scattered Clouds
8:33 PM 60.8 °F 55.4 °F 82% 29.89 in 6.2 mi South 18.4 mph 29.9 mph N/A   Mostly Cloudy
9:00 PM 62 °F 57 °F 80% 29.92 in - SSE 15.0 mph - -   Overcast
9:00 PM 62.6 °F 57.2 °F 82% 29.92 in 6.2 mi SSE 15.0 mph - N/A   Mostly Cloudy
9:16 PM 64.4 °F 51.8 °F 64% 29.92 in 6.2 mi South 18.4 mph 29.9 mph N/A   Scattered Clouds
9:36 PM 62.6 °F 50.0 °F 63% 29.92 in 6.2 mi South 19.6 mph 32.2 mph N/A   Scattered Clouds
10:00 PM 62.6 °F 48.2 °F 59% 29.92 in - SSW 17.3 mph - N/A   Clear
10:30 PM 62.6 °F 50.0 °F 63% 29.92 in - South 15.0 mph - N/A   Clear
11:00 PM 63 °F 50 °F 54% 29.94 in - SSW 16.1 mph - -  
11:00 PM 62.6 °F 50.0 °F 63% 29.92 in 6.2 mi SSW 16.1 mph - N/A   Scattered Clouds
11:30 PM 62.6 °F 50.0 °F 63% 29.92 in 6.2 mi SSW 16.1 mph - N/A   Overcast